Temperature
19 19 19 19 19 19 19 19 19 19 19 19 19 19 19 19 19 19 19 20 19 19 19 19 19 19 19 19 19 19 19 18 18 18 18 18 18 18 18 18 18 18 18
19 19 19 19 19 19 19 19 19 19 19 19 19 19 19 19 19 19 19 19 19 19 19 19 19 19 19 18 18 19 18 18 18 18 18 18 18 18 18 18 18 18 18
19 19 19 19 19 19 19 19 19 19 19 19 19 19 19 19 19 19 19 19 19 19 19 19 19 19 19 18 18 18 18 18 18 18 18 18 18 18 18 18 18 18 18
19 19 19 18 18 18 18 18 18 18 19 19 19 19 19 19 19 19 19 19 19 19 19 19 19 19 19 18 18 18 18 18 18 18 18 18 18 18 18 18 18 18 18
18 18 18 18 18 18 18 18 18 18 18 18 18 18 18 18 18 18 18 19 19 19 19 19 19 19 18 18 18 18 18 18 18 18 18 18 18 18 18 18 18 18 18
18 18 18 18 18 18 18 18 18 18 18 18 18 18 18 18 18 18 18 18 18 18 18 18 18 18 18 18 18 18 18 18 18 18 18 18 18 18 18 18 18 18 18
18 18 18 18 18 17 17 17 17 17 17 17 17 17 17 18 18 18 18 18 18 18 18 18 18 18 18 18 18 18 18 18 18 18 18 18 18 18 18 18 18 18 18
18 18 18 18 17 17 17 17 17 17 17 17 17 17 17 17 17 17 17 17 18 18 18 18 18 18 18 18 18 18 18 18 18 18 18 18 18 18 18 18 18 18 18
18 18 18 18 17 17 17 17 17 17 17 17 17 17 17 17 17 17 17 17 17 17 17 17 18 18 18 18 18 18 18 18 18 18 18 18 18 18 18 18 18 18 18
18 18 18 17 17 17 17 16 16 16 16 16 16 16 16 17 17 17 17 17 17 17 17 17 17 18 18 18 18 18 18 18 18 18 18 18 18 18 18 18 18 18 18
18 18 17 17 17 16 16 16 16 16 16 16 16 16 16 16 16 16 16 17 17 17 17 17 17 17 17 17 17 17 17 18 18 18 18 18 18 18 18 18 18 17 18
18 17 17 17 16 16 16 16 16 16 16 16 16 16 16 16 16 16 16 16 16 16 17 17 17 17 17 17 17 17 17 17 18 18 18 18 18 18 18 18 18 18 17
17 17 17 16 16 16 16 16 15 15 15 15 15 15 15 16 16 16 16 16 16 16 16 17 17 17 17 17 17 17 17 17 17 18 18 18 18 18 18 18 18 18 17
17 17 17 16 16 16 15 15 15 15 15 15 15 15 15 15 15 15 15 16 16 16 16 16 16 17 17 17 17 17 17 17 17 18 18 17 18 17 17 17 18 18 17
17 17 16 16 16 15 15 15 15 15 15 15 14 14 14 15 15 15 15 15 15 15 16 16 16 16 17 17 17 17 17 17 17 17 18 17 18 17 17 17 18 18 17
17 17 16 16 15 15 15 15 14 14 14 14 14 14 14 14 14 14 14 15 15 15 15 15 16 16 16 16 17 17 17 17 17 17 18 18 18 17 17 17 17 17 17
17 17 16 15 15 15 14 14 14 14 14 14 14 14 14 14 14 14 14 14 14 15 15 15 15 16 16 16 16 16 17 17 17 17 17 18 18 18 17 17 17 17 17
17 16 16 15 15 14 14 14 14 14 14 13 13 13 13 13 13 14 14 14 14 14 14 15 15 15 15 16 16 16 16 17 17 17 17 18 17 18 17 17 17 17 17
17 16 16 15 15 14 14 14 14 13 13 13 13 13 13 13 13 13 13 13 14 14 14 14 14 15 15 15 16 16 16 17 17 17 17 17 17 17 17 17 17 17 17
16 16 15 15 14 14 14 14 13 13 13 13 13 13 13 13 13 13 13 13 13 13 14 14 14 14 15 15 15 16 16 16 16 17 17 17 17 17 17 17 17 17 17
16 16 15 15 14 14 14 13 13 13 13 13 13 13 13 13 13 13 13 13 13 13 13 13 14 14 14 15 15 15 15 16 16 16 17 17 17 17 17 17 17 17 17
16 15 15 14 14 14 13 13 13 13 13 13 13 13 13 12 12 12 12 12 13 13 13 13 13 13 14 14 14 15 15 15 16 16 16 17 17 17 17 17 17 17 17
16 15 15 14 14 13 13 13 13 13 13 13 13 13 12 12 12 12 12 12 12 13 13 13 13 13 13 14 14 14 14 15 15 15 16 16 16 17 17 17 17 17 17
16 15 15 14 14 13 13 13 13 13 12 12 12 12 12 12 12 12 12 12 12 12 12 12 13 13 13 13 13 14 14 14 14 15 15 16 16 16 16 16 16 17 17
16 15 14 14 14 13 13 13 13 12 12 12 12 12 12 12 12 12 12 12 12 12 12 12 12 13 13 13 13 13 14 14 14 14 14 15 15 16 16 16 16 16 16
15 15 14 14 14 13 13 13 13 12 12 12 12 12 12 12 12 12 12 12 12 12 12 12 12 12 12 13 13 13 13 13 14 14 14 14 15 15 16 16 16 16 16
Wind_Speed
3 4 6 7 7 7 6 5 5 4 4 4 5 5 5 5 5 5 5 4 4 3 3 3 3 3 4 4 4 4 4 4 4 4 3 3 3 3 4 5 5 4 6
4 6 7 7 6 6 5 5 4 4 4 4 4 4 4 5 5 5 5 4 4 3 2 2 2 2 2 2 3 3 3 3 3 3 2 2 2 2 4 4 4 4 5
4 5 6 6 6 6 5 5 4 4 4 4 5 5 6 6 6 6 6 5 4 4 3 2 2 1 1 1 1 2 2 2 3 3 3 1 1 2 3 3 4 5 5
4 5 5 6 5 5 4 4 4 4 5 5 6 6 7 7 7 7 7 6 6 5 5 4 3 2 1 1 1 1 2 2 2 3 2 0 1 2 3 3 4 4 4
3 3 3 4 3 3 3 3 4 5 5 6 7 7 8 8 8 8 8 8 7 7 6 6 5 5 4 3 2 2 2 2 2 3 2 1 2 2 3 4 4 5 5
2 1 1 1 2 2 3 4 4 5 6 6 7 8 8 9 9 9 9 9 9 8 8 7 7 6 6 5 4 3 2 2 1 2 1 1 2 3 4 4 4 5 5
2 1 1 1 2 3 3 4 5 5 6 7 8 8 8 8 9 9 10 10 10 10 9 9 8 8 7 7 6 5 3 3 1 1 1 1 3 4 4 5 5 5 5
3 1 2 2 2 3 4 5 5 6 7 8 9 9 9 9 9 10 11 11 11 11 11 10 10 10 9 8 7 6 5 4 2 1 2 3 4 6 6 6 6 6 6
2 1 2 3 4 4 5 5 6 7 7 8 9 9 9 8 9 9 10 10 11 11 11 11 10 10 10 9 9 8 6 5 3 2 3 3 5 6 7 7 7 7 6
2 2 2 3 4 5 5 6 7 7 8 9 9 8 8 8 8 9 9 10 10 10 10 10 11 11 11 10 9 9 8 5 4 4 4 5 6 7 8 7 7 7 7
1 2 2 3 4 5 5 5 7 7 8 9 8 8 8 7 7 7 8 9 9 9 9 9 10 11 11 10 10 9 7 4 4 4 5 7 7 8 9 9 8 7 7
0 1 2 2 2 3 4 5 6 6 7 7 7 7 6 6 6 6 7 8 8 7 8 8 9 9 8 7 7 7 4 4 5 5 6 8 8 8 9 9 9 8 8
2 0 1 1 2 2 2 3 4 5 6 6 7 6 5 5 5 5 5 6 7 6 5 6 6 5 5 5 4 4 4 4 5 5 6 8 8 8 9 10 10 10 9
2 1 1 1 1 2 2 2 3 3 3 4 6 6 4 2 2 3 2 4 4 4 3 3 3 4 4 5 5 4 4 4 5 5 7 8 9 9 9 10 10 11 10
3 2 1 1 1 1 2 2 2 2 3 4 5 5 3 2 2 2 2 3 3 3 2 3 3 3 3 3 4 4 4 5 6 6 6 8 9 9 10 11 11 11 11
3 2 2 1 0 1 1 1 2 2 3 3 4 5 4 2 1 2 3 3 3 3 3 3 3 3 3 2 3 3 4 5 5 6 6 7 8 9 10 10 11 12 12
3 2 2 1 0 1 2 2 2 2 3 3 3 5 4 3 2 2 2 3 3 4 3 2 2 1 2 2 2 3 3 4 4 5 5 5 6 7 9 10 10 12 12
3 2 1 1 1 2 2 2 2 2 3 3 4 4 5 4 3 2 2 3 3 3 2 2 1 1 1 1 2 2 3 3 4 4 4 5 5 5 7 9 10 11 12
3 2 1 2 2 2 3 2 2 2 2 3 4 4 4 5 4 2 2 3 3 2 2 2 0 0 1 1 2 2 2 3 3 4 4 4 4 5 5 7 9 10 12
2 1 0 1 2 2 2 3 3 3 3 3 3 4 4 4 4 2 2 3 2 1 2 1 1 1 1 1 2 2 2 2 2 3 3 3 3 4 5 6 6 8 10
1 1 1 1 2 2 2 2 2 3 3 3 3 4 5 5 4 2 2 2 1 1 2 1 1 1 1 0 1 1 2 1 1 2 2 2 2 3 4 5 6 6 7
2 2 1 2 2 1 1 1 2 2 3 3 3 4 5 5 4 3 2 2 2 1 2 1 0 0 1 0 1 1 2 2 1 1 1 2 2 2 3 4 5 7 7
3 4 3 2 2 2 2 1 2 2 3 3 4 4 5 6 5 4 3 2 2 2 2 2 1 1 1 1 1 2 1 1 2 1 1 1 2 2 2 2 4 6 7
5 3 3 3 3 2 2 1 1 2 2 3 4 4 6 5 5 4 3 2 2 2 2 3 2 2 2 1 1 1 1 2 1 1 2 1 1 2 3 3 4 5 6
4 3 3 2 3 2 2 1 1 2 2 4 4 5 5 5 5 4 3 2 2 2 2 2 1 2 2 2 1 1 0 0 1 1 1 1 1 2 3 3 3 4 6
3 2 2 3 3 2 2 2 1 3 4 5 5 5 5 5 4 5 4 3 3 2 2 2 2 2 3 3 2 2 2 2 2 2 2 1 1 2 2 2 3 3 5
Wind_Direction
212 212 197 174 164 162 163 165 163 160 159 162 160 163 163 162 163 162 159 154 145 133 122 113 105 98 90 85 85 76 66 64 64 67 77 83 87 90 106 107 98 95 107
174 185 192 184 176 174 179 186 187 188 190 197 195 195 194 189 188 187 186 183 178 174 165 143 129 115 108 88 80 71 58 49 47 53 63 72 88 108 122 122 117 115 112
142 176 196 195 192 192 197 206 209 215 222 226 222 220 219 214 208 205 205 206 205 203 202 202 203 180 149 112 63 45 37 27 22 31 42 51 82 143 145 143 137 126 121
143 170 193 202 202 206 214 225 233 239 246 247 244 239 235 232 226 222 223 222 223 221 222 225 230 229 236 253 274 338 6 5 0 22 34 350 243 184 165 159 150 141 131
128 160 197 215 222 228 244 250 256 262 266 266 262 255 248 244 240 235 234 234 235 233 233 234 236 238 243 251 262 286 321 335 350 22 13 271 241 224 187 178 165 153 147
120 148 193 244 260 260 271 283 288 290 290 288 282 272 265 259 253 247 244 244 244 243 242 239 237 239 243 250 259 270 287 307 352 9 353 272 228 231 200 189 177 169 161
117 75 353 307 307 301 295 294 293 298 303 303 301 294 286 278 270 263 257 254 252 250 247 246 242 241 244 248 253 261 269 281 257 304 309 270 234 233 213 198 189 180 172
134 95 5 340 337 331 318 314 316 314 310 309 309 309 306 300 288 279 271 265 261 258 254 250 245 244 244 246 250 256 262 265 252 248 279 258 240 233 222 208 198 192 184
119 75 9 353 350 341 331 326 327 324 326 323 316 312 311 313 305 293 290 285 277 268 260 254 250 250 247 247 250 252 256 255 235 238 259 256 247 236 226 215 205 197 188
67 38 1 355 1 356 344 339 340 338 337 335 331 327 325 323 318 305 297 291 287 281 270 260 254 254 253 250 252 254 255 252 229 231 251 261 257 240 227 215 205 194 187
48 18 4 2 5 0 350 359 359 354 351 346 343 340 342 340 329 315 306 297 291 289 286 275 265 260 259 256 254 255 256 237 222 231 240 255 259 246 228 213 202 196 188
230 339 8 4 2 -0 357 1 360 356 353 349 342 340 342 335 326 318 316 316 311 307 304 292 278 266 259 254 255 258 246 231 226 233 240 250 254 248 230 211 203 200 191
195 222 1 359 2 5 352 352 356 355 353 351 351 348 344 340 333 330 327 327 328 324 318 308 294 269 248 239 235 233 232 233 230 235 241 247 253 248 230 211 205 203 195
170 207 288 355 9 357 357 350 351 348 344 344 345 351 353 346 340 332 326 322 322 314 305 298 281 270 252 234 222 221 225 230 234 232 238 245 250 248 228 213 206 203 199
183 219 259 300 352 342 353 339 356 335 330 329 341 350 355 341 333 333 322 329 323 317 301 290 278 270 260 236 222 219 218 224 234 231 235 244 249 246 227 215 207 204 201
201 220 247 262 306 354 352 331 320 329 332 338 343 344 350 343 320 331 329 324 318 315 301 283 274 263 255 238 230 221 223 224 232 231 232 240 244 241 229 217 210 204 202
200 222 258 231 2 347 337 331 340 333 342 342 340 344 348 342 329 315 318 313 305 312 308 299 293 263 248 244 238 231 224 222 222 226 229 230 235 235 224 216 213 207 202
187 211 279 321 357 340 338 327 329 338 346 337 336 338 340 339 334 323 313 304 306 318 317 297 288 287 264 260 259 255 239 226 224 221 221 219 217 221 217 213 212 210 205
187 204 270 330 342 339 338 334 334 341 342 334 336 335 333 336 335 323 299 294 313 319 328 314 318 261 260 272 260 250 246 238 230 228 217 212 207 204 205 213 212 212 209
177 202 288 344 345 342 342 343 343 342 336 338 336 332 330 331 333 324 289 297 312 321 328 328 300 277 251 260 270 280 272 261 233 227 220 211 202 204 203 203 207 214 214
169 200 281 313 325 351 351 339 332 323 321 327 328 336 336 332 330 319 304 304 303 283 278 293 300 286 270 302 30 331 328 301 250 238 222 212 213 207 200 201 203 203 214
195 219 247 260 294 315 294 275 263 276 293 293 306 324 333 336 332 319 307 297 286 275 292 283 236 283 275 117 109 74 344 346 324 267 222 214 218 206 206 208 205 204 203
211 218 223 237 268 300 320 336 342 345 337 340 334 330 327 330 327 319 296 283 275 246 252 251 209 183 236 276 139 142 144 241 308 319 259 223 206 207 220 203 203 206 206
218 221 227 242 269 294 323 356 356 345 322 301 303 308 317 326 326 326 316 291 273 255 252 254 217 192 175 216 284 244 196 182 180 313 331 342 232 221 221 221 214 203 206
215 217 230 254 279 297 313 315 333 312 287 296 307 320 327 327 328 330 324 313 295 269 257 254 242 206 186 188 199 210 167 117 173 180 274 320 321 259 231 216 209 204 204
219 227 234 253 275 295 310 307 292 299 309 320 326 330 328 324 324 330 326 321 305 279 257 245 231 212 201 193 199 201 191 191 192 184 208 248 271 276 252 218 205 206 202
Height
1524 1525 1527 1528 1529 1530 1530 1531 1532 1532 1533 1533 1533 1533 1533 1533 1533 1533 1533 1533 1533 1533 1532 1532 1532 1532 1532 1531 1531 1531 1531 1530 1530 1530 1530 1530 1529 1529 1529 1529 1529 1529 1529
1525 1526 1527 1528 1529 1530 1531 1531 1532 1532 1532 1533 1532 1532 1533 1533 1533 1532 1532 1532 1532 1532 1532 1532 1532 1532 1532 1531 1531 1531 1531 1531 1530 1530 1530 1530 1530 1529 1529 1529 1530 1530 1530
1525 1526 1527 1528 1529 1529 1530 1531 1531 1531 1532 1532 1532 1532 1532 1532 1532 1532 1532 1532 1532 1532 1532 1531 1531 1531 1531 1531 1531 1531 1531 1531 1530 1530 1530 1530 1530 1530 1530 1530 1530 1530 1530
1525 1526 1527 1528 1529 1529 1529 1530 1530 1530 1530 1531 1530 1531 1530 1530 1531 1531 1531 1531 1531 1531 1531 1531 1531 1531 1531 1531 1531 1531 1531 1530 1530 1530 1530 1530 1530 1530 1530 1530 1530 1530 1531
1526 1527 1528 1528 1528 1528 1528 1529 1529 1529 1529 1529 1529 1529 1529 1529 1529 1529 1529 1530 1530 1530 1530 1530 1530 1530 1530 1530 1530 1530 1530 1530 1530 1530 1530 1530 1530 1530 1530 1530 1530 1531 1531
1527 1527 1528 1528 1528 1528 1528 1528 1528 1527 1527 1527 1527 1527 1527 1527 1527 1527 1528 1528 1528 1528 1528 1529 1529 1529 1529 1529 1529 1529 1529 1529 1529 1530 1530 1530 1530 1530 1530 1530 1530 1531 1531
1527 1528 1528 1527 1527 1527 1527 1527 1526 1526 1526 1525 1525 1525 1525 1525 1525 1525 1526 1526 1527 1527 1527 1527 1527 1527 1528 1528 1528 1528 1528 1528 1529 1529 1529 1530 1529 1529 1530 1530 1530 1531 1531
1528 1528 1528 1527 1527 1526 1526 1525 1525 1524 1524 1523 1523 1523 1523 1523 1523 1523 1523 1524 1524 1525 1525 1525 1525 1526 1526 1526 1527 1527 1527 1527 1528 1528 1529 1529 1529 1529 1529 1530 1530 1531 1531
1528 1528 1527 1527 1526 1525 1525 1524 1523 1523 1522 1522 1521 1520 1520 1520 1520 1520 1520 1521 1521 1522 1522 1523 1523 1524 1524 1525 1525 1526 1526 1526 1527 1527 1528 1528 1528 1529 1529 1529 1530 1530 1531
1528 1528 1527 1526 1525 1525 1524 1523 1522 1521 1520 1520 1519 1519 1518 1518 1517 1518 1518 1518 1518 1519 1520 1520 1521 1521 1522 1523 1523 1524 1524 1525 1525 1526 1526 1527 1527 1528 1528 1529 1529 1530 1531
1527 1527 1526 1526 1525 1524 1522 1521 1521 1520 1519 1518 1517 1517 1516 1515 1515 1515 1515 1515 1516 1516 1516 1517 1518 1518 1519 1520 1521 1522 1523 1523 1524 1524 1525 1526 1526 1527 1528 1528 1529 1530 1530
1527 1526 1526 1525 1524 1523 1521 1520 1519 1518 1517 1516 1515 1515 1514 1513 1513 1513 1513 1513 1513 1513 1513 1514 1515 1516 1516 1517 1519 1520 1520 1521 1522 1523 1523 1524 1525 1526 1527 1527 1528 1529 1530
1526 1526 1525 1524 1523 1521 1520 1519 1517 1516 1515 1514 1513 1513 1512 1512 1511 1511 1510 1510 1510 1510 1511 1511 1512 1512 1513 1515 1516 1517 1518 1519 1520 1521 1522 1523 1524 1525 1525 1526 1527 1528 1529
1526 1525 1524 1523 1522 1520 1519 1517 1516 1514 1513 1512 1511 1510 1510 1509 1509 1508 1508 1508 1508 1508 1508 1508 1509 1510 1510 1511 1512 1514 1515 1516 1517 1519 1520 1521 1522 1523 1524 1525 1526 1527 1528
1525 1525 1524 1522 1521 1519 1517 1516 1514 1513 1511 1510 1509 1508 1508 1507 1506 1506 1506 1506 1505 1505 1505 1506 1506 1507 1507 1508 1509 1511 1512 1514 1515 1516 1518 1519 1520 1521 1522 1524 1525 1526 1527
1524 1524 1523 1521 1520 1518 1516 1514 1513 1511 1510 1508 1507 1506 1505 1505 1504 1503 1503 1503 1503 1503 1503 1503 1503 1504 1505 1505 1506 1508 1509 1511 1512 1514 1515 1517 1518 1519 1521 1522 1523 1525 1526
1524 1523 1522 1520 1519 1517 1515 1513 1512 1510 1508 1507 1506 1504 1503 1502 1502 1501 1501 1500 1500 1500 1500 1500 1501 1501 1502 1502 1503 1505 1506 1508 1509 1511 1513 1514 1516 1517 1519 1520 1521 1523 1525
1523 1522 1521 1520 1518 1516 1514 1512 1511 1509 1507 1505 1504 1503 1502 1501 1500 1499 1498 1498 1497 1497 1497 1498 1498 1498 1499 1499 1500 1502 1503 1505 1506 1508 1510 1512 1513 1515 1517 1519 1520 1522 1523
1522 1521 1520 1519 1517 1515 1514 1512 1510 1508 1506 1504 1503 1501 1500 1499 1498 1497 1496 1495 1495 1495 1495 1495 1495 1495 1496 1497 1498 1499 1500 1501 1503 1505 1507 1509 1511 1512 1515 1517 1518 1520 1522
1521 1520 1519 1518 1516 1514 1513 1511 1509 1507 1505 1503 1501 1500 1498 1497 1495 1494 1493 1493 1493 1492 1492 1492 1493 1493 1494 1494 1495 1496 1497 1498 1500 1501 1503 1505 1508 1510 1512 1514 1516 1518 1520
1519 1519 1518 1517 1515 1513 1512 1510 1508 1506 1504 1502 1500 1498 1496 1495 1493 1492 1491 1491 1490 1490 1490 1490 1490 1491 1492 1492 1493 1493 1494 1495 1497 1498 1500 1502 1504 1507 1509 1511 1514 1516 1518
1518 1518 1517 1516 1514 1513 1511 1509 1507 1505 1503 1501 1499 1497 1495 1493 1491 1490 1489 1488 1488 1488 1488 1488 1488 1489 1489 1490 1491 1491 1492 1494 1494 1495 1497 1499 1501 1504 1506 1508 1511 1513 1515
1517 1517 1516 1515 1513 1512 1510 1508 1506 1504 1502 1500 1498 1496 1493 1491 1490 1488 1487 1486 1486 1485 1485 1486 1486 1486 1487 1488 1489 1490 1491 1491 1492 1493 1494 1496 1498 1501 1503 1505 1508 1510 1512
1516 1516 1515 1513 1512 1511 1509 1507 1505 1503 1501 1499 1496 1494 1492 1490 1488 1487 1485 1484 1484 1483 1483 1483 1484 1484 1485 1486 1487 1488 1490 1490 1491 1491 1493 1494 1495 1498 1500 1502 1504 1507 1509
1515 1514 1514 1512 1511 1510 1508 1506 1504 1502 1500 1498 1496 1494 1491 1489 1487 1485 1484 1482 1482 1481 1481 1481 1481 1482 1483 1484 1485 1486 1487 1488 1489 1490 1490 1492 1493 1495 1497 1499 1501 1504 1506
1513 1513 1512 1511 1510 1509 1507 1505 1503 1501 1499 1497 1495 1493 1490 1488 1486 1484 1482 1481 1480 1479 1479 1479 1479 1480 1481 1482 1483 1484 1485 1486 1487 1488 1488 1489 1491 1493 1494 1496 1498 1500 1502